Regional Weather Roundup
Issued by NWS

Home | Current Version | Previous Version | Graphics & Text | Print | Product List | Glossary On
Versions: 1 2 3 4 5 6 7 8 9 10 11 12 13 14 15 16 17 18 19 20 21 22 23 24 25 26 27 28 29 30 31 32 33 34 35 36 37 38 39 40 41 42 43 44 45 46 47 48 49 50
000
ASUS43 KTOP 230608
RWRKS

WEATHER ROUNDUP FOR KANSAS
NATIONAL WEATHER SERVICE GOODLAND KS
1200 AM CST THU NOV 23 2017

NOTE:  "FAIR" INDICATES FEW OR NO CLOUDS BELOW 12,000 FEET WITH NO
SIGNIFICANT WEATHER AND/OR OBSTRUCTIONS TO VISIBILITY.

KSZ001>006-013>018-027>032-041>047-230700-
NORTHWEST KANSAS

CITY           SKY/WX    TMP DP  RH WIND       PRES   REMARKS
GOODLAND       CLEAR     47  37  68 W9        30.15F
6HR MIN TEMP:  43; 6HR MAX TEMP:  53;

HAYS           CLOUDY    39  30  70 W5        30.08F
HILL CITY      CLEAR     44  35  70 W8        30.09S
6HR MIN TEMP:  44; 6HR MAX TEMP:  57;

RUSSELL        CLEAR     38  23  55 S9        30.07F
6HR MIN TEMP:  38; 6HR MAX TEMP:  49;

$$

KSZ061>065-074>080-084>089-230700-
SOUTHWEST KANSAS

CITY           SKY/WX    TMP DP  RH WIND       PRES   REMARKS
DODGE CITY     CLOUDY    47  31  53 W10       30.13S
6HR MIN TEMP:  40; 6HR MAX TEMP:  53;

ELKHART        CLOUDY    52  33  48 W13       30.18S
GARDEN CITY    CLOUDY    43  33  68 W9        30.14S
6HR MIN TEMP:  42; 6HR MAX TEMP:  49;

GREAT BEND     CLEAR     36  21  54 S7        30.10F
LIBERAL        CLOUDY    41  31  67 W7        30.15F
PRATT          CLEAR     35  19  52 S8        30.11F
6HR MIN TEMP:  34; 6HR MAX TEMP:  44;

$$

KSZ066>073-081>083-090>101-230700-
SOUTHEAST KANSAS

CITY           SKY/WX    TMP DP  RH WIND       PRES   REMARKS
CHANUTE        CLOUDY    33  21  61 S7        30.19F
6HR MIN TEMP:  30; 6HR MAX TEMP:  38;

COFFEYVILLE    CLOUDY    33  24  69 S6        30.21F
6HR MIN TEMP:  29; 6HR MAX TEMP:  39;

HUTCHINSON     CLEAR     34  22  61 S3        30.12F
6HR MIN TEMP:  34; 6HR MAX TEMP:  41;

MEDICINE LODGE   N/A     36  21  54 SE3       30.13F
NEWTON         CLEAR     37  20  50 S13       30.13F WCI  29
PARSONS        CLOUDY    32  22  66 S3        30.21F
6HR MIN TEMP:  27; 6HR MAX TEMP:  34;

WICHITA INTL   CLOUDY    32  22  66 S8        30.14F
6HR MIN TEMP:  32; 6HR MAX TEMP:  40;

WICHITA JABRA  CLOUDY    39  21  48 S10       30.14F WCI  32
6HR MIN TEMP:  33; 6HR MAX TEMP:  41;

WICHITA MCCONL CLOUDY    35  20  53 SW9       30.14F
WINFIELD       CLOUDY    33  23  66 S7        30.18F
6HR MIN TEMP:  32; 6HR MAX TEMP:  38;

$$

KSZ007>012-019>026-033>040-048>060-102>105-230700-
NORTHEAST KANSAS

CITY           SKY/WX    TMP DP  RH WIND       PRES   REMARKS
CONCORDIA      CLEAR     42  21  43 SW13      30.05F
6HR MIN TEMP:  38; 6HR MAX TEMP:  43;

EMPORIA        CLEAR     31  20  63 S8        30.14F
6HR MIN TEMP:  31; 6HR MAX TEMP:  38;

LAWRENCE       PTCLDY    38  20  48 S9        30.13F
6HR MIN TEMP:  31; 6HR MAX TEMP:  39;

MANHATTAN      CLEAR     37  21  52 SW7       30.10F
6HR MIN TEMP:  34; 6HR MAX TEMP:  40;

MARYSVILLE     CLEAR     39  21  48 SW13G20   30.06S WCI  32
OLATHE IND     PTCLDY    37  19  48 S13       30.14F WCI  29
6HR MIN TEMP:  30; 6HR MAX TEMP:  38;

OLATHE EXE     PTCLDY    35  20  54 S8        30.14F
6HR MIN TEMP:  31; 6HR MAX TEMP:  36;

SALINA         CLEAR     40  22  48 S7        30.11F
6HR MIN TEMP:  40; 6HR MAX TEMP:  45;

TOPEKA BILLARD PTCLDY    39  20  46 SW7       30.11F
6HR MIN TEMP:  35; 6HR MAX TEMP:  40;

TOPEKA FORBES  CLOUDY    37  20  50 S9        30.11F
6HR MIN TEMP:  36; 6HR MAX TEMP:  39;

$$




USA.gov is the U.S. government's official web portal to all federal, state and local government web resources and services.